Погода Полярный

Погода Полярный : погода сейчас, прогноз погоды и архив. Всё, что Вы хотите узнать о погоде Полярный!

Хотите узнать прогноз погоды Полярный? Тогда Вам сюда: Погода Полярный

Поиск расширенной информации на нашем сайте:

Полезная информация: Изготовление Салфеток с логотипом

Другие новости

Новости СМИ2

Главная страница сайта

Новости сайта

03.07.2017

Напоминаем, что на нашем специализированном сайте Метеоцентр.Азия вы можете получить высокодетализированные автоматические прогнозы погоды по пунктам России, СНГ и мира в авиационном формате (включающие направление и скорость ветра, видимость, явления погоды, количество и форму облачности, нижнюю и верхнюю границу облачности).

Рекомендуем: Надежно - новости балаково - у нас дешевле.

Погода Полярный - сегодня

Время (UTC), дата Ветер
(°,м/с) 
Видим.   Явления Облачность Т
(°С)
Тd
(°С)
f(%) Тe
(°С)
Pmin
(гПа)
dP
(гПа)
Po
(мм)
O2
(г/м3)
Тmin Tmax R s Состояние
почвы
06 22.09.17 080 (В) 20000 м    10/0 средняя 
[Ac und]
+2.7 -1.8 72 +2  1013.2  714  285           
09 22.09.17 090 (В) 20000 м    10/5 1000 м средняя 
[Sc|Ac und]
+3 -1.8 71 +2  1013.5  0.4  715  285           
12 22.09.17 060 (СВ) 20000 м    6/4 1000 м средняя 
[Sc|Ac trans]
+0.9 -1.1 86 -1  1015  716  287    +3.8       
15 22.09.17 070 (В) 20000 м    6/4 1000 м средняя 
[Sc|Ac trans]
-0.6 -0.9 98 -1  1015  -0.3  715  289           
18 22.09.17 040 (СВ) 20000 м    10/5 1000 м средняя 
[Sc|Ac und]
-0.3 -0.3 100 -2  1016.5  1.4  716  289           
21 22.09.17 040 (СВ) 4000 м    10/6 660 м средняя 
[Sc|Ac und]
-0.6 -0.9 98 -2  1016.6  0.1  716  289           
00 23.09.17 030 (СВ) 1000 м  дымка{туман}  10/10 100 м 
[St]
-1.3 -1.2 100 -4  1017.3  0.5  717  290  -1.6        замёрзшая 
03 23.09.17 010 (С) 2000 м  слаб. снег  10/8 150 м средняя 
[Frnb|As op]
-0.9 -1.3 97 -4  1017.3  717  290           
06 23.09.17 360 (С) 5-10{10}  2000 м  слаб. снег  10/8 120 м средняя 
[Frnb|As op]
-1.3 -1.8 96 -5  1016.8  -0.6  716  290           
09 23.09.17 010 (С) 6-11{11}  1000 м  снег  10/8 210 м средняя 
[Frnb|As op]
-2.6 -3.3 95 -7  1017.8  0.7  717  292           
12 23.09.17 360 (С) 6-11{12}  1000 м  снег  10/8 180 м средняя 
[Frnb|As op]
-3.9 -4.4 96 -8  1018.7  0.6  717  294    -0.8  0.7     
15 23.09.17 010 (С) 6-11{12}  4000 м  слаб. снег  10/6 540 м средняя 
[Frnb|As op]
-5 -6 93 -9  1018.8  -0.2  717  295           
18 23.09.17 010 (С) 4{12}  4000 м  слаб. снег  10/8 600 м средняя 
[Frnb|As op]
-5.7 -6.8 92 -9  1019.1  0.1  717  296           
21 23.09.17 360 (С) 6-11{11}  4000 м  слаб. снег  10/8 630 м средняя 
[Frnb|As op]
-6.7 -7.9 91 -11  1018.7  -0.6  717  297           
00 24.09.17 350 (С) 5{11}  2000 м  слаб. снег  10/8 330 м средняя 
[Frnb|As op]
-7.3 -8.2 93 -12  1019.3  0.4  717  298  -7.4    равномерный
сухой снег
100% 
03 24.09.17 360 (С) 2000 м  слаб. снег  10/8 300 м средняя 
[Frnb|As op]
-6.9 -8.2 90 -11  1018.3  -0.8  716  297           
06 24.09.17 360 (С) 10 км  слаб. снег  10/8 400 м средняя 
[Frnb|As op]
-6.1 -8 86 -10  1018.2  716  296           
09 24.09.17 340 (С) 4{10}  2000 м  слаб. снег  10/8 270 м средняя 
[Frnb|As op]
-6 -6.8 94 -9  1017.8  -0.2  716  296           
12 24.09.17 010 (С) 2000 м  слаб. снег  10/8 360 м средняя 
[Frnb|As op]
-5.8 -6.5 95 -10  1017.8  716  296    -5.7     
15 24.09.17 010 (С) 4000 м  слаб. снег  10/8 500 м средняя 
[Frnb|As op]
-5.9 -6.3 97 -9  1017.1  -0.7  716  295           
18 24.09.17 020 (С) 10 км  {снег}  10/8 540 м средняя 
[Frnb|As op]
-5.8 -6.2 97 -9  1016.4  -0.7  715  295           
21 24.09.17 020 (С) 4000 м  слаб. снег  10/8 500 м средняя 
[Frnb|As op]
-6 -6.4 97 -9  1015.4  -0.9  715  295           
00 25.09.17 020 (С) 1000 м  слаб. снег  10/8 180 м средняя 
[Frnb|As op]
-5.6 -6 97 -9  1015.2  715  295  -6.3    10  равномерный
сухой снег
100% 
03 25.09.17 020 (С) 2000 м  слаб. снег  10/8 240 м средняя 
[Frnb|As op]
-4.7 -5.3 96 -8  1014.3  -0.7  714  293           
06 25.09.17 010 (С) 20000 м  {снег}  10/8 330 м средняя 
[Frnb|As op]
-3.5 -5.7 85 -7  1013.2  -0.8  713  292           
Время (UTC), дата Ветер
(°,м/с) 
Видим.   Явления Облачность Т
(°С)
Тd
(°С)
f(%) Тe
(°С)
Pmin
(гПа)
dP
(гПа)
Po
(мм)
O2
(г/м3)
Тmin Tmax R s Состояние
почвы

Для получения пояснительной информации подведите курсор к названию столбца.

ПОГОДА Полярный - архив

Всё, что Вы хотите узнать о погоде Полярный - удобно и подробно!

Выберите нужную дату (начиная с 1 января 2015* года) и нажмите кнопку "Найти".
Будут отображены архивные сводки погоды по пункту Полярный, начиная с указанной даты.


Отображать данные в формате CSV (для использования в таблицах Excel)


Внимание! Наш архив погоды предназначен исключительно для личного некоммерческого использования в познавательных целях. Если Вам необходимы официальные справки о состоянии погоды (для производственных, юридических, коммерческих и т.п. целей), обращайтесь в органы Росгидромета.

*Примечание: данная дата относится к архиву по метеостанциям СССР (Россия, СНГ, Балтия).
Архив по метеостанциям Зарубежной Европы и Азии (кроме Китая) хранится 10 дней, по другим регионам земного шара (Китай, Африка, Америка, Австралия, Океания) - 1 день.

Полярный - район местоположения метеостанции


Название, широта, долгота, высота метеостанции:
Полярный 66.5°ш. 112°д. 509 м над ур. моря [Российская Федерация]

Дополнительная информация

В oтличие oт бoльшинства пoгoдных сайтoв мы публикуем пoдрoбную метеoинфoрмацию в детальнoм прoфессиoнальнoм фoрмате.

Характеристики температуры и влажнoсти вoздуха измеряются на высoте 2 м в тени вдали oт зданий и деревьев.
Скoрoсть ветра измеряется на высoте 10 м (на урoвне рoста челoвека скoрoсть ветра ниже в 1.5-2 раза). Если метеoстанция нахoдится в гoрoде или в лесу, тo скoрoсть ветра занижена на 2-4 м/с пo сравнению с oткрытым местoм. Скoрoсть ветра над акватoриями крупных рек и oзёр, а также на вершинах хoлмoв на 2-5 м/с выше, чем в oбычных услoвиях.
Атмoсфернoе давление в разных тoчках местнoсти мoжет значительнo oтличаться oт давления на метеoстанции, в зависимoсти oт услoвий рельефа (при пoдъёме на 10 м давление пoнижается примернo на 1 мм рт.ст.).